{"data":{"norad_id":64355,"epoch":"2026-05-25T03:25:34.948704Z","epoch_age_seconds":62304,"freshness":"FRESH","line1":"1 64355U 25126M   26145.14276561  .00002452  00000+0  21319-3 0  9990","line2":"2 64355  70.0007 201.6959 0003630 268.3785  91.6959 14.98334749 53337","mean_motion":14.98334749,"eccentricity":0.000363,"inclination_deg":70.0007,"raan_deg":201.6959,"arg_perigee_deg":268.3785,"mean_anomaly_deg":91.6959,"bstar":0.00021319,"rev_number":5333,"period_min":96.106694512763,"perigee_km":569.518290404,"apogee_km":574.5641197809,"semimajor_km":6950.1782050925,"source":"CELESTRAK","updated_at":"2026-05-25T13:38:20.403284Z"}}